Location: Beaver Meadows
(40.3729°N, 105.6140°W)
Time: 02:44:52
(UTC-06:00)

Iridium 67 - Visible Passes

Search period start: 16 April 2014 00:00
Search period end: 26 April 2014 00:00
Orbit: 776 x 779 km, 86.4° (Epoch: 15 April)

Date Brightness Start Highest point End Pass type
(mag) Time Alt. Az. Time Alt. Az. Time Alt. Az.
16 Apr 5.7 21:47:24 10° N 21:52:27 49° E 21:52:32 49° E visible
16 Apr 7.7 23:29:17 10° NW 23:32:43 18° W 23:33:02 18° W visible
17 Apr 6.5 21:14:22 10° NNE 21:18:45 27° E 21:19:27 26° E visible
17 Apr 6.8 22:54:52 10° NNW 22:59:27 33° W 22:59:57 32° W visible
18 Apr 7.2 20:42:00 10° NE 20:44:55 15° ENE 20:46:23 14° E visible
18 Apr 5.9 22:20:57 10° N 22:26:05 61° W 22:26:52 54° SW visible
19 Apr 5.4 21:47:22 10° N 21:52:35 73° E 21:53:49 51° SSE visible
19 Apr 8.1 23:30:33 10° NW 23:32:35 12° WNW 23:34:19 11° W visible
20 Apr 6.0 21:14:06 10° NNE 21:18:58 39° E 21:20:48 29° SE visible
20 Apr 7.5 22:55:24 10° NNW 22:59:24 23° W 23:01:18 19° WSW visible
21 Apr 6.8 20:41:15 10° NNE 20:45:12 22° ENE 20:47:47 15° ESE visible
21 Apr 6.6 22:21:13 10° NNW 22:26:05 42° W 22:28:17 27° SW visible
22 Apr 5.6 21:47:27 10° N 21:52:40 78° W 21:55:18 30° S visible
23 Apr 5.6 21:13:59 10° N 21:19:07 57° E 21:22:21 22° SSE visible
23 Apr 8.0 22:56:14 10° NW 22:59:17 16° WNW 23:02:20 10° WSW visible
24 Apr 6.4 20:40:51 10° NNE 20:45:26 31° E 20:49:25 13° SE visible
24 Apr 7.2 22:21:37 10° NNW 22:26:03 29° W 22:29:55 13° SW visible
25 Apr 6.2 21:47:38 10° NNW 21:52:41 53° W 21:57:01 14° SSW visible
